Regional Weather Roundup
Issued by NWS

Home | Current Version | Previous Version | Graphics & Text | Print | Product List | Glossary On
Versions: 1 2 3 4 5 6 7 8 9 10 11 12 13 14 15 16 17 18 19 20 21 22 23 24 25 26 27 28 29 30 31 32 33 34 35 36 37 38 39 40 41 42 43 44 45 46 47 48 49 50
523
ASUS43 KOAX 192310
RWRNE

WEATHER ROUNDUP FOR NEBRASKA
NATIONAL WEATHER SERVICE OMAHA NE
500 PM CST THU JAN 19 2017

NOTES: SATELLITE DATA IS BEING USED TO AUGMENT CLOUD COVER ABOVE
       12000 FEET.
       "FAIR" INDICATES FEW OR NO CLOUDS BELOW 12,000 FEET WITH NO
       SIGNIFICANT WEATHER AND/OR OBSTRUCTIONS TO VISIBILITY.

  * THESE STATIONS DO NOT REPORT WEATHER SUCH AS RAIN...SNOW OR FOG.

NEZ001>004-019>022-054>056-200000-
NEBRASKA PANHANDLE

CITY           SKY/WX    TMP DP  RH WIND       PRES   REMARKS
SCOTTSBLUFF    CLEAR     51  24  34 W8        29.49S
ALLIANCE       CLEAR     50  25  37 W5        29.48R
CHADRON        CLEAR     40  28  62 SW3       29.48S
KIMBALL        CLEAR     51  29  42 CALM      29.52S
SIDNEY         CLEAR     47  31  53 S7        29.50S
$$

NEZ057>060-069>072-079>082-200000-
SOUTHWEST NEBRASKA

CITY           SKY/WX    TMP DP  RH WIND       PRES   REMARKS
NORTH PLATTE   CLOUDY    39  39 100 S8        29.56S WCI  33
IMPERIAL       CLEAR     39  35  86 SE10      29.54R WCI  32
LEXINGTON      CLOUDY    41  39  93 S5        29.59S
MCCOOK         CLOUDY    37  37 100 CALM      29.57F FOG
OGALLALA       CLEAR     47  32  56 SE5       29.52S
$$

NEZ005>010-023>029-035>040-094-200000-
NORTH CENTRAL NEBRASKA

CITY           SKY/WX    TMP DP  RH WIND       PRES   REMARKS
VALENTINE      CLEAR     47  30  51 S14       29.47R
AINSWORTH      CLEAR     40  37  89 S12       29.51S WCI  32
BROKEN BOW     CLOUDY    41  39  93 S12G25    29.56F
O`NEILL        CLOUDY    42  42  99 S8        29.57S FOG
ORD            CLOUDY    41  39  93 S6        29.58S FOG
THEDFORD       CLEAR     40  36  84 S8        29.53R WCI  35
$$

NEZ041-046>049-061>064-073>077-083>087-200000-
SOUTH CENTRAL NEBRASKA

CITY           SKY/WX    TMP DP  RH WIND       PRES   REMARKS
GRAND ISLAND   CLOUDY    41  41 100 SW5       29.62R
AURORA         CLOUDY    41  41 100 S5        29.61S
HASTINGS       CLOUDY    42  41  96 CALM      29.61F
HEBRON         CLOUDY    42  42  98 SE3       29.63S FOG
HOLDREGE       CLOUDY    41  40  97 CALM      29.60S FOG
KEARNEY *      CLOUDY    41  37  87 S5        29.61S
YORK           PTCLDY    41  41 100 S6        29.62F
$$

NEZ011>018-030>034-042>045-200000-
NORTHEAST NEBRASKA

CITY           SKY/WX    TMP DP  RH WIND       PRES   REMARKS
NORFOLK        CLOUDY    40  38  93 S8        29.62S FOG     WCI  34
ALBION         FOG       39  39 100 S3        29.62R VSB 1/2
BLAIR          CLOUDY    41  40  95 CALM      29.65F FOG
FREMONT        FOG       40  40 100 SE3       29.65F VSB 1/4
TEKAMAH        CLOUDY    39  38  96 SE5       29.66S FOG
WAYNE          CLOUDY    40  40  98 S6        29.64R FOG
$$

NEZ050>053-065>068-078-088>093-200000-
SOUTHEAST NEBRASKA

CITY           SKY/WX    TMP DP  RH WIND       PRES   REMARKS
LINCOLN        CLOUDY    42  42 100 CALM      29.66S FOG
OMAHA EPPLEY   CLOUDY    42  38  85 SE6       29.66F FOG
BEATRICE       FOG       43  43 100 CALM      29.64S VSB 3/4
FALLS CITY     CLOUDY    45  43  93 SE7       29.65S
NEBRASKA CITY  CLOUDY    42  42 100 CALM      29.66S FOG
PLATTSMOUTH    FOG       41  39  93 CALM      29.65S VSB 1/4
$$

NEZ044-045-051>053-067-200000-
OMAHA AREA

CITY           SKY/WX    TMP DP  RH WIND       PRES   REMARKS
OMAHA EPPLEY   CLOUDY    42  38  85 SE6       29.66F FOG
BLAIR          CLOUDY    41  40  95 CALM      29.65F FOG
FREMONT        FOG       40  40 100 SE3       29.65F VSB 1/4
MILLARD        FOG       44  42  95 CALM      29.65F VSB 3/4
OFFUTT AFB     CLOUDY    42  42 100 CALM      29.65F FOG
PLATTSMOUTH    FOG       41  39  93 CALM      29.65S VSB 1/4
WAHOO          FOG       39  38  97 SE5       29.65F VSB<1/4
$$




USA.gov is the U.S. government's official web portal to all federal, state and local government web resources and services.